Find OneWeb SL0356

NORAD ID: 49283 Int'l Des: 2021-090 Owner: ONEWEBN Country: UK Constellation: oneweb operational
LEOCIRCULARPOLARONEWEB_TYPE

リアルタイム位置

3D地球を読み込み中...

OneWeb SL0356について

説明を読み込み中...

次回通過

Passes for default location (London). Set your location on the main map for personalized predictions.

高度履歴

Loading altitude history...

軌道要素

1 49283U 21090E 26125.80237840 -.00000223 00000-0 -58108-3 0 9990
2 49283 87.9149 282.8900 0002579 104.0090 256.1330 13.20768919224231
Epoch: May 5, 2026 • Age: 15 hours

現在のステータス

高度 1193.6 km
速度 7.26 km/s
衛星直下点 85.15°N, 59.02°E
打ち上げ日 Oct 14, 2021
運用期間 4.5 years
タイプ internet

技術仕様

分類 Payload
質量 148.00 kg
乾燥質量 140.00 kg
総質量 148.00 kg
長さ 1.30 m
直径 1.00 m
スパン 5.00 m
形状 Trapezoid+2 pan
製造者 ONEWUS
バスタイプ ARROW
フェーズステータス In Orbit
所有者/国 ONEWEBN/UK

Most Searched